This demonstration page uses our WeatherBlox Daily Observations layout. Learn more.

Left ArrowRight Arrow

Hourly Observations for April 4, 2017

Temp ( °F °C ) Dew Point ( °F °C ) Humidity (%) Winds ( mph kmh ) Pressure ( in mb ) Visibility ( mi km ) Precip ( " mm )
12:15 am 00:15 Cloudy 55 13 55 13 100 100 WSW 3 6 29.65 1004 10 16 N/A
12:35 am 00:35 Cloudy with Mist and Fog 55 13 55 13 100 100 S 6 9 29.65 1004 5 8 N/A
12:55 am 00:55 Cloudy with Mist and Fog 55 13 55 13 100 100 SSW 9 15 29.65 1004 3 5 N/A
1:15 am 01:15 Cloudy with Mist and Fog 57 14 57 14 100 100 SSW 7 11 29.65 1004 3 5 N/A
1:35 am 01:35 Cloudy with Mist and Fog 57 14 57 14 100 100 SSW 9 15 29.65 1004 4 6 N/A
1:55 am 01:55 Cloudy with Mist and Fog 57 14 57 14 100 100 SSW 6 9 29.65 1004 5 8 N/A
2:15 am 02:15 Cloudy 57 14 57 14 100 100 WSW 5 7 29.65 1004 10 16 N/A
2:35 am 02:35 Cloudy 55 13 55 13 100 100 S 3 6 29.62 1003 10 16 N/A
2:55 am 02:55 Cloudy 57 14 57 14 100 100 S 3 6 29.62 1003 10 16 N/A
3:15 am 03:15 Cloudy 57 14 57 14 100 100 S 6 9 29.62 1003 10 16 N/A
3:35 am 03:35 Cloudy 57 14 57 14 100 100 S 6 9 29.62 1003 10 16 N/A
3:55 am 03:55 Cloudy 57 14 57 14 100 100 S 8 13 29.62 1003 10 16 N/A
4:15 am 04:15 Cloudy 57 14 57 14 100 100 S 7 11 29.59 1002 10 16 N/A
4:35 am 04:35 Cloudy 57 14 57 14 100 100 S 8 13 29.59 1002 10 16 N/A
4:55 am 04:55 Mostly Cloudy 57 14 57 14 100 100 S 7 11 29.59 1002 10 16 N/A
5:15 am 05:15 Partly Cloudy 55 13 55 13 100 100 SSW 6 9 29.59 1002 10 16 N/A
5:35 am 05:35 Clear 55 13 55 13 100 100 S 6 9 29.59 1002 7 11 N/A
5:55 am 05:55 Mostly Cloudy 55 13 55 13 100 100 SSW 3 6 29.59 1002 7 11 N/A
6:15 am 06:15 Cloudy 55 13 55 13 100 100 N N/A 29.59 1002 7 11 N/A
6:35 am 06:35 Cloudy 59 15 59 15 100 100 SW 7 11 29.59 1002 10 16 N/A
6:55 am 06:55 Cloudy 59 15 59 15 100 100 SSW 6 9 29.59 1002 10 16 N/A
7:15 am 07:15 Partly Cloudy 59 15 59 15 100 100 S 7 11 29.59 1002 10 16 N/A
7:35 am 07:35 Partly Cloudy 59 15 59 15 100 100 SW 7 11 29.59 1002 10 16 N/A
7:55 am 07:55 Mostly Cloudy with Light Rain 61 16 61 16 100 100 SW 8 13 29.59 1002 10 16 N/A
8:15 am 08:15 Mostly Cloudy 61 16 61 16 100 100 SW 8 13 29.59 1002 10 16 N/A
8:35 am 08:35 Mostly Cloudy with Light Rain 61 16 61 16 100 100 SW 8 13 29.59 1002 10 16 N/A
8:55 am 08:55 Cloudy with Drizzle 61 16 61 16 100 100 SSW 7 11 29.59 1002 10 16 N/A
9:15 am 09:15 Partly Cloudy 63 17 63 17 100 100 SW 7 11 29.59 1002 10 16 N/A
9:35 am 09:35 Mostly Cloudy 64 18 63 17 94 94 SW 10 17 29.59 1002 10 16 N/A
9:55 am 09:55 Mostly Cloudy 66 19 63 17 88 88 SSW 8 13 29.59 1002 10 16 N/A
10:15 am 10:15 Partly Cloudy 66 19 61 16 83 83 WSW 8 13 29.59 1002 10 16 N/A
10:35 am 10:35 Partly Cloudy 68 20 63 17 83 83 SW 12 19 29.59 1002 10 16 N/A
10:55 am 10:55 Partly Cloudy 70 21 61 16 73 73 SW 12 19 29.59 1002 10 16 N/A
11:15 am 11:15 Partly Cloudy 70 21 61 16 73 73 W 10 17 29.59 1002 10 16 N/A
11:35 am 11:35 Mostly Cloudy 72 22 61 16 69 69 WSW 8 13 29.59 1002 10 16 N/A
11:55 am 11:55 Mostly Cloudy 72 22 59 15 65 65 W 8 13 29.59 1002 10 16 N/A
12:15 pm 12:15 Mostly Cloudy 72 22 59 15 65 65 WNW 7 11 29.56 1001 10 16 N/A
12:35 pm 12:35 Mostly Cloudy 73 23 59 15 61 61 W 10 17 29.56 1001 10 16 N/A
12:55 pm 12:55 Mostly Cloudy 75 24 55 13 50 50 W 15 24 29.56 1001 10 16 N/A
1:15 pm 13:15 Cloudy 72 22 55 13 57 57 W 14 22 29.59 1002 10 16 N/A
1:35 pm 13:35 Cloudy 73 23 55 13 53 53 W 8 13 29.59 1002 10 16 N/A
1:55 pm 13:55 Cloudy 77 25 59 15 54 54 W 10 17 29.59 1002 10 16 N/A
2:15 pm 14:15 Cloudy 77 25 55 13 47 47 W 15 24 29.59 1002 10 16 N/A
2:35 pm 14:35 Cloudy 77 25 57 14 51 51 WNW 14 22 29.59 1002 10 16 N/A
2:55 pm 14:55 Cloudy 77 25 57 14 51 51 WNW 16 26 29.59 1002 10 16 N/A
3:15 pm 15:15 Mostly Cloudy 77 25 57 14 51 51 NW 10 17 29.59 1002 10 16 N/A
3:35 pm 15:35 Partly Cloudy 77 25 55 13 47 47 W 17 28 29.59 1002 10 16 N/A
3:55 pm 15:55 Sunny 79 26 54 12 42 42 W 18 30 29.59 1002 10 16 N/A
4:15 pm 16:15 Partly Cloudy 79 26 52 11 39 39 W 17 28 29.59 1002 10 16 N/A
4:35 pm 16:35 Mostly Cloudy 77 25 50 10 39 39 WNW 16 26 29.59 1002 10 16 N/A
4:55 pm 16:55 Partly Cloudy 79 26 50 10 37 37 WNW 24 39 29.59 1002 10 16 N/A
5:15 pm 17:15 Sunny 79 26 50 10 37 37 WNW 21 33 29.62 1003 10 16 N/A
5:35 pm 17:35 Partly Cloudy 77 25 50 10 39 39 WNW 16 26 29.62 1003 10 16 N/A
5:55 pm 17:55 Sunny 77 25 48 9 36 36 WNW 23 37 29.65 1004 10 16 N/A
6:15 pm 18:15 Sunny 77 25 46 8 34 34 WNW 26 43 29.65 1004 10 16 N/A
6:35 pm 18:35 Sunny 75 24 46 8 36 36 WNW 17 28 29.68 1005 10 16 N/A
6:55 pm 18:55 Sunny 73 23 46 8 38 38 NW 15 24 29.68 1005 10 16 N/A
7:15 pm 19:15 Sunny 72 22 46 8 41 41 WNW 10 17 29.68 1005 10 16 N/A
7:35 pm 19:35 Partly Cloudy 72 22 46 8 41 41 NW 12 19 29.71 1006 10 16 N/A
7:55 pm 19:55 Partly Cloudy 70 21 46 8 43 43 NW 12 19 29.71 1006 10 16 N/A
8:15 pm 20:15 Partly Cloudy 70 21 46 8 43 43 WNW 13 20 29.71 1006 10 16 N/A
8:35 pm 20:35 Partly Cloudy 68 20 46 8 46 46 WNW 10 17 29.74 1007 10 16 N/A
8:55 pm 20:55 Clear 68 20 46 8 46 46 WNW 8 13 29.74 1007 10 16 N/A
9:15 pm 21:15 Clear 68 20 46 8 46 46 WNW 9 15 29.74 1007 10 16 N/A
9:35 pm 21:35 Clear 66 19 46 8 49 49 WNW 9 15 29.77 1008 10 16 N/A
9:55 pm 21:55 Clear 68 20 46 8 46 46 WNW 13 20 29.77 1008 10 16 N/A
10:15 pm 22:15 Clear 68 20 46 8 46 46 WNW 12 19 29.77 1008 10 16 N/A
10:35 pm 22:35 Partly Cloudy 66 19 46 8 49 49 WNW 8 13 29.77 1008 10 16 N/A
10:55 pm 22:55 Partly Cloudy 64 18 46 8 52 52 WNW 9 15 29.77 1008 10 16 N/A
11:15 pm 23:15 Partly Cloudy 64 18 46 8 52 52 WNW 8 13 29.77 1008 10 16 N/A
11:35 pm 23:35 Partly Cloudy 63 17 46 8 56 56 WNW 10 17 29.80 1009 10 16 N/A
11:55 pm 23:55 Partly Cloudy 64 18 46 8 52 52 WNW 16 26 29.80 1009 10 16 N/A

Powered by AerisWeather